Regional Weather Roundup
Issued by NWS

Home | Current Version | Previous Version | Text Only | Print | Product List | Glossary Off
Versions: 1 2 3 4 5 6 7 8 9 10 11 12 13 14 15 16 17 18 19 20 21 22 23 24 25 26 27 28 29 30 31 32 33 34 35 36 37 38 39 40 41 42 43 44 45 46 47 48 49 50

000
ASUS45 KCYS 110110
RWRWY

WYOMING REGIONAL WEATHER ROUNDUP
NATIONAL WEATHER SERVICE CHEYENNE WY
700 PM MDT THU JUL 10 2014

NOTE:  "FAIR" INDICATES FEW OR NO CLOUDS BELOW 12,000 FEET
WITH NO SIGNIFICANT WEATHER AND/OR OBSTRUCTIONS TO VISIBILITY.

WYZ001-110200-
YELLOWSTONE NATIONAL PARK

CITY           SKY/WX    TMP DP  RH WIND       PRES   REMARKS
LK YELLOWSTONE   N/A     72  39  30 CALM      30.20S
W YELLOWSTONE  NOT AVBL

$$
WYZ002>013-054>058-071-098>099-110200-
NORTHERN WYOMING

CITY           SKY/WX    TMP DP  RH WIND       PRES   REMARKS
JACKSON        MOSUNNY   75  52  43 CALM      30.09F
CODY           MOSUNNY   75  57  53 SE10      29.98R
GREYBULL       LGT RAIN  81  50  33 SE6       29.88F
WORLAND        PTSUNNY   81  58  45 N5        29.92R
SHERIDAN       PTSUNNY   77  58  51 S9        29.90S
BUFFALO        PTSUNNY   75  58  55 CALM      30.00R
GILLETTE       MOSUNNY   84  51  31 NW3       29.93S
HULETT         FAIR      82  55  39 MISG      29.93
NEWCASTLE      FAIR      81  50  34 MISG      29.94

$$
WYZ014>020-022>026-101>103-110200-
CENTRAL WYOMING

CITY           SKY/WX    TMP DP  RH WIND       PRES   REMARKS
BIG PINEY      MOSUNNY   76  47  35 NE8       30.15R
PINEDALE       CLEAR     73  45  35 NW12      30.16S
DUBOIS         FAIR      73  45  35 N3        30.13S
LANDER         PTSUNNY   84  48  28 CALM      30.00S
RIVERTON       MOSUNNY   82  47  29 N8        30.01S
CASPER         CLOUDY    73  58  59 N8        30.02S
DOUGLAS        CLOUDY    70  64  81 CALM      30.01F

$$
WYZ021-027>030-104>119-110200-
SOUTHERN WYOMING

CITY           SKY/WX    TMP DP  RH WIND       PRES   REMARKS
EVANSTON       CLOUDY    67  54  63 E12       30.14S THUNDER
KEMMERER       CLOUDY    70  52  52 S13G20    30.17R
FORT BRIDGER   MOCLDY    69  54  58 S17       30.18F
ROCK SPRINGS   CLOUDY    66  57  72 NW7       30.15F
DIXON          MOCLDY    75  51  42 CALM      30.14R
RAWLINS        LGT RAIN  65  55  70 NW21G26   30.14R
SARATOGA       CLOUDY    75  46  35 NW7       30.14R
LARAMIE        LGT RAIN  70  52  52 N3        30.16R
CHEYENNE       PTSUNNY   82  46  28 S5        30.05R
TORRINGTON     CLOUDY    74  61  63 N10       29.96R

$$


USA.gov is the U.S. government's official web portal to all federal, state and local government web resources and services.